Coraopolis, PA

6:39 PM EST on February 27, 2017 (GMT -0500)
Pittsburgh International

Weather History for KPIT - December, 2011

Change the Weather History Date:

Saturday, December 10, 2011

  Actual Average Record
Temperature  
Mean Temperature 28 °F 34 °F  
Max Temperature 34 °F 41 °F 72 °F (1971)
Min Temperature 21 °F 27 °F -6 °F (1876)
Degree Days  
Heating Degree Days 37 31  
Month to date heating degree days 266 296  
Since 1 July heating degree days 1261 1459  
Cooling Degree Days 0 0  
Month to date cooling degree days 0 0  
Year to date cooling degree days 1009 736  
Moisture  
Dew Point 15 °F    
Average Humidity 54    
Maximum Humidity 72    
Minimum Humidity 36    
Precipitation  
Precipitation T in 0.10 in 1.20 in (1878)
Month to date precipitation 0.30 0.98  
Year to date precipitation 42.07 36.32  
Snow  
Snow T in 0.20 in 8.30 in (1992)
Month to date snowfall T 2.2  
Since 1 July snowfall 1.6 4.6  
Snow Depth 0.00 in    
Sea Level Pressure  
Sea Level Pressure 30.45 in    
Wind  
Wind Speed 7 mph (WNW)    
Max Wind Speed 16 mph    
Max Gust Speed 20 mph    
Visibility 10 miles    
Events Snow    
T = Trace of Precipitation, MM = Missing Value Source: NWS Daily Summary

Daily Weather History Graph

Daily Weather History Graph

Search for Another Location

Airport or City:

Trip Planner

Search our weather history database for the weather conditions in past years. The results will help you decide how hot, cold, wet, or windy it might be!

Date:

Astronomy

Dec. 10, 2011 Rise Set
Actual Time 7:33 AM EST 4:54 PM EST
Civil Twilight 7:02 AM EST 5:24 PM EST
Nautical Twilight 6:28 AM EST 5:58 PM EST
Astronomical Twilight 5:55 AM EST 6:32 PM EST
Moon 5:06 PM EST (12/10) 7:31 AM EST (12/10)
Length of Visible Light 10h 22m
Length of Day
9h 21m
Full, 100% of the Moon is Illuminated
Dec 10
Full
Dec 17
Last Quarter
Dec 24
New
Jan 1
First Quarter
Jan 9
Full

Hourly Weather History & Observations

Time (EST) Temp. Windchill Dew Point Humidity Pressure Visibility Wind Dir Wind Speed Gust Speed Precip Events Conditions
12:25 AM 33.8 °F 23.9 °F 26.6 °F 75% 30.27 in 9.0 mi NW 15.0 mph - 0.00 in Snow Light Snow
12:51 AM 33.1 °F 25.5 °F 25.0 °F 72% 30.33 in 9.0 mi NW 9.2 mph - 0.00 in Snow Light Snow
1:51 AM 32.0 °F 21.6 °F 25.0 °F 75% 30.32 in 9.0 mi NW 15.0 mph - 0.00 in Snow Light Snow
2:41 AM 32.0 °F 22.5 °F 23.0 °F 69% 30.28 in 9.0 mi NW 12.7 mph - 0.00 in   Overcast
2:51 AM 32.0 °F 24.2 °F 23.0 °F 69% 30.34 in 10.0 mi NW 9.2 mph - 0.00 in   Overcast
3:51 AM 30.9 °F 21.2 °F 21.9 °F 69% 30.35 in 10.0 mi NW 12.7 mph - N/A   Mostly Cloudy
4:51 AM 28.0 °F 20.0 °F 18.0 °F 66% 30.37 in 10.0 mi West 8.1 mph - N/A   Partly Cloudy
5:51 AM 28.9 °F 20.4 °F 19.0 °F 67% 30.40 in 10.0 mi NNW 9.2 mph - N/A   Overcast
6:51 AM 27.0 °F 16.7 °F 16.0 °F 63% 30.43 in 10.0 mi WNW 11.5 mph - N/A   Overcast
7:51 AM 24.1 °F 13.1 °F 12.9 °F 62% 30.45 in 10.0 mi WNW 11.5 mph - N/A   Clear
8:51 AM 26.1 °F 16.2 °F 14.0 °F 60% 30.48 in 10.0 mi WNW 10.4 mph - N/A   Clear
9:51 AM 27.0 °F 19.5 °F 12.0 °F 53% 30.50 in 10.0 mi WNW 6.9 mph - N/A   Clear
10:51 AM 28.0 °F 20.8 °F 10.9 °F 49% 30.50 in 10.0 mi WSW 6.9 mph - N/A   Partly Cloudy
11:51 AM 30.0 °F 22.4 °F 12.0 °F 47% 30.48 in 10.0 mi NW 8.1 mph - N/A   Partly Cloudy
12:51 PM 30.9 °F 23.5 °F 12.0 °F 46% 30.48 in 10.0 mi West 8.1 mph - N/A   Partly Cloudy
1:51 PM 32.0 °F 23.6 °F 10.4 °F 41% 30.40 in 10.0 mi WNW 10.4 mph - N/A   Partly Cloudy
2:51 PM 30.9 °F 24.3 °F 8.1 °F 38% 30.46 in 10.0 mi West 6.9 mph 17.3 mph N/A   Partly Cloudy
3:51 PM 30.9 °F 21.7 °F 7.0 °F 37% 30.48 in 10.0 mi NW 11.5 mph - N/A   Partly Cloudy
4:51 PM 28.9 °F 21.1 °F 8.1 °F 41% 30.50 in 10.0 mi WNW 8.1 mph - N/A   Clear
5:51 PM 28.0 °F 24.2 °F 8.1 °F 43% 30.51 in 10.0 mi West 3.5 mph - N/A   Clear
6:51 PM 26.1 °F 21.9 °F 9.0 °F 49% 30.52 in 10.0 mi West 3.5 mph - N/A   Clear
7:51 PM 26.1 °F 21.9 °F 10.0 °F 51% 30.53 in 10.0 mi West 3.5 mph - N/A   Clear
8:51 PM 25.0 °F - 10.9 °F 55% 30.54 in 10.0 mi Calm Calm - N/A   Clear
9:51 PM 23.0 °F - 12.0 °F 63% 30.56 in 10.0 mi Calm Calm - N/A   Clear
10:51 PM 21.9 °F - 12.9 °F 68% 30.57 in 10.0 mi Calm Calm - N/A   Clear
11:51 PM 21.9 °F - 10.9 °F 63% 30.57 in 10.0 mi Calm Calm - N/A   Clear